Weather History for KSKA - November, 2011

Change the Weather History Date:

Saturday, November 12, 2011

  Actual Average Record
Temperature  
Mean Temperature 31 °F -  
Max Temperature 37 °F 42 °F 66 °F (1999)
Min Temperature 25 °F 29 °F 14 °F (2014)
Degree Days  
Heating Degree Days 34    
Moisture  
Dew Point 31 °F    
Average Humidity 98    
Maximum Humidity 100    
Minimum Humidity 70    
Precipitation  
Precipitation 0.07 in - - ()
Sea Level Pressure  
Sea Level Pressure 29.61 in    
Wind  
Wind Speed 18 mph (WSW)    
Max Wind Speed 29 mph    
Max Gust Speed 40 mph    
Visibility 5 miles    
Events Fog , Rain , Snow    
Averages and records for this station are not official NWS values.
T = Trace of Precipitation, MM = Missing Value Source: NWS Daily Summary

Daily Weather History Graph

Daily Weather History Graph

Search for Another Location

Airport or City:

Trip Planner

Search our weather history database for the weather conditions in past years. The results will help you decide how hot, cold, wet, or windy it might be!

Date:

Astronomy

Nov. 12, 2011 Rise Set
Actual Time 6:51 AM PST 4:17 PM PST
Civil Twilight 6:17 AM PST 4:51 PM PST
Nautical Twilight 5:40 AM PST 5:28 PM PST
Astronomical Twilight 5:04 AM PST 6:04 PM PST
Moon 5:29 PM PST (11/12) 8:45 AM PST (11/12)
Length of Visible Light 10h 33m
Length of Day
9h 26m
Waning Gibbous, 96% of the Moon is Illuminated
Nov 12
Waning Gibbous
Nov 18
Last Quarter
Nov 24
New
Dec 2
First Quarter
Dec 10
Full

Hourly Weather History & Observations

Time (PST) Temp. Windchill Dew Point Humidity Pressure Visibility Wind Dir Wind Speed Gust Speed Precip Events Conditions
12:08 AM 33.8 °F 22.8 °F 32.0 °F 93% 29.42 in 9.0 mi West 18.4 mph - N/A Snow Light Snow
12:13 AM 33.8 °F 23.5 °F 32.0 °F 93% 29.42 in 9.0 mi West 16.1 mph - N/A   Overcast
12:16 AM 32.0 °F 20.5 °F 32.0 °F 100% 29.42 in 10.0 mi West 18.4 mph - N/A Snow Light Snow
12:18 AM 32.0 °F 20.5 °F 32.0 °F 100% 29.42 in 10.0 mi West 18.4 mph - N/A Snow Light Snow
12:45 AM 32.0 °F 18.6 °F 32.0 °F 100% 29.44 in 2.5 mi West 25.3 mph - N/A Snow Light Snow
12:48 AM 32.0 °F 18.9 °F 32.0 °F 100% 29.44 in 1.0 mi West 24.2 mph 31.1 mph N/A Snow Light Snow
12:50 AM 30.2 °F 17.8 °F 30.2 °F 100% 29.44 in 0.8 mi West 19.6 mph 31.1 mph N/A Snow Light Snow
12:51 AM 30.2 °F 18.5 °F 30.2 °F 100% 29.44 in 0.8 mi West 17.3 mph 31.1 mph N/A Snow Light Snow
12:53 AM 30.2 °F 17.8 °F 30.2 °F 100% 29.44 in 0.5 mi West 19.6 mph 31.1 mph N/A Fog , Snow Light Freezing Fog
12:55 AM 30.4 °F 17.7 °F 30.4 °F 100% 29.45 in 0.5 mi West 20.7 mph 31.1 mph 0.00 in Fog , Snow Light Freezing Fog
12:56 AM 30.2 °F 17.8 °F 30.2 °F 100% 29.45 in 0.5 mi West 19.6 mph 25.3 mph N/A Fog , Snow Light Freezing Fog
12:57 AM 30.2 °F 18.1 °F 30.2 °F 100% 29.45 in 0.8 mi West 18.4 mph 25.3 mph N/A Snow Light Snow
12:59 AM 30.2 °F 17.1 °F 30.2 °F 100% 29.45 in 0.8 mi West 21.9 mph 25.3 mph N/A Snow Light Snow
1:00 AM 30.2 °F 17.8 °F 30.2 °F 100% 29.45 in 1.0 mi West 19.6 mph 25.3 mph N/A Snow Light Snow
1:02 AM 30.2 °F 18.5 °F 30.2 °F 100% 29.45 in 1.2 mi West 17.3 mph 25.3 mph N/A Snow Light Snow
1:03 AM 30.2 °F 18.5 °F 30.2 °F 100% 29.45 in 1.5 mi West 17.3 mph 25.3 mph N/A Snow Light Snow
1:05 AM 30.2 °F 18.5 °F 30.2 °F 100% 29.45 in 1.8 mi West 17.3 mph 25.3 mph N/A Snow Light Snow
1:06 AM 30.2 °F 18.5 °F 30.2 °F 100% 29.45 in 2.0 mi WSW 17.3 mph 25.3 mph N/A Snow Light Snow
1:08 AM 30.2 °F 18.9 °F 30.2 °F 100% 29.46 in 2.5 mi WSW 16.1 mph 25.3 mph N/A Snow Light Snow
1:09 AM 30.2 °F 18.5 °F 30.2 °F 100% 29.46 in 2.5 mi WSW 17.3 mph - N/A Snow Light Snow
1:11 AM 30.2 °F 18.9 °F 30.2 °F 100% 29.46 in 3.0 mi West 16.1 mph - N/A   Overcast
1:16 AM 32.0 °F 22.1 °F 30.2 °F 93% 29.46 in 8.0 mi West 13.8 mph - N/A   Light Drizzle
1:37 AM 32.0 °F 19.8 °F 32.0 °F 100% 29.47 in 10.0 mi West 20.7 mph - N/A   Overcast
1:41 AM 32.0 °F 19.8 °F 32.0 °F 100% 29.48 in 10.0 mi West 20.7 mph - N/A Snow Light Snow
1:55 AM 32.2 °F 20.0 °F 32.0 °F 99% 29.48 in 10.0 mi West 20.7 mph 26.5 mph 0.01 in Rain Light Rain
2:16 AM 32.0 °F 19.8 °F 32.0 °F 100% 29.50 in 9.0 mi West 20.7 mph 27.6 mph N/A Snow Light Snow
2:22 AM 30.2 °F 17.4 °F 30.2 °F 100% 29.51 in 5.0 mi West 20.7 mph 27.6 mph N/A Snow Light Snow
2:24 AM 30.2 °F 18.1 °F 30.2 °F 100% 29.51 in 4.0 mi West 18.4 mph 27.6 mph N/A Snow Light Snow
2:26 AM 30.2 °F 18.1 °F 30.2 °F 100% 29.51 in 3.0 mi West 18.4 mph - N/A Snow Light Snow
2:27 AM 30.2 °F 17.8 °F 30.2 °F 100% 29.51 in 2.5 mi West 19.6 mph - N/A Snow Light Snow
2:30 AM 30.2 °F 17.4 °F 30.2 °F 100% 29.51 in 1.8 mi West 20.7 mph - N/A Snow Light Snow
2:31 AM 30.2 °F 17.1 °F 30.2 °F 100% 29.51 in 1.5 mi West 21.9 mph - N/A Snow Light Snow
2:32 AM 30.2 °F 16.8 °F 30.2 °F 100% 29.52 in 1.5 mi West 23.0 mph - N/A Snow Light Snow
2:34 AM 30.2 °F 16.5 °F 30.2 °F 100% 29.52 in 1.2 mi West 24.2 mph - N/A Snow Light Snow
2:36 AM 30.2 °F 18.1 °F 30.2 °F 100% 29.52 in 1.0 mi West 18.4 mph - N/A Snow Light Snow
2:37 AM 30.2 °F 17.8 °F 30.2 °F 100% 29.52 in 1.0 mi West 19.6 mph - N/A Snow Light Snow
2:38 AM 30.2 °F 17.4 °F 30.2 °F 100% 29.52 in 1.0 mi West 20.7 mph - N/A Snow Light Snow
2:41 AM 30.2 °F 18.5 °F 30.2 °F 100% 29.51 in 0.8 mi West 17.3 mph - N/A Snow Light Snow
2:44 AM 30.2 °F 18.1 °F 30.2 °F 100% 29.52 in 1.0 mi West 18.4 mph - N/A Snow Light Snow
2:45 AM 30.2 °F 17.8 °F 30.2 °F 100% 29.52 in 1.0 mi West 19.6 mph - N/A Snow Light Snow
2:48 AM 30.2 °F 18.1 °F 30.2 °F 100% 29.52 in 1.2 mi West 18.4 mph 25.3 mph N/A Snow Light Snow
2:50 AM 30.2 °F 17.8 °F 30.2 °F 100% 29.52 in 1.5 mi West 19.6 mph 25.3 mph N/A Snow Light Snow
2:51 AM 30.2 °F 17.8 °F 30.2 °F 100% 29.52 in 1.8 mi West 19.6 mph 25.3 mph N/A Snow Light Snow
2:54 AM 30.2 °F 18.1 °F 30.2 °F 100% 29.53 in 2.5 mi West 18.4 mph 25.3 mph N/A Snow Light Snow
3:00 AM 30.2 °F 17.8 °F 30.2 °F 100% 29.53 in 6.0 mi West 19.6 mph - N/A Snow Light Snow
3:11 AM 30.2 °F 17.8 °F 30.2 °F 100% 29.55 in 10.0 mi West 19.6 mph 24.2 mph N/A   Overcast
3:55 AM 30.4 °F 19.1 °F 30.4 °F 100% 29.56 in 10.0 mi West 16.1 mph - 0.00 in   Overcast
3:57 AM 30.2 °F 19.3 °F 30.2 °F 100% 29.56 in 10.0 mi West 15.0 mph - N/A   Overcast
4:17 AM 30.2 °F 19.3 °F 30.2 °F 100% 29.57 in 10.0 mi WSW 15.0 mph - N/A   Light Freezing Rain
4:41 AM 30.2 °F 18.9 °F 30.2 °F 100% 29.60 in 10.0 mi WSW 16.1 mph - N/A   Overcast
4:52 AM 30.2 °F 18.9 °F 30.2 °F 100% 29.60 in 10.0 mi West 16.1 mph - N/A   Light Freezing Rain
4:55 AM 30.2 °F 18.5 °F 30.0 °F 99% 29.60 in 10.0 mi West 17.3 mph - 0.00 in   Light Freezing Rain
5:35 AM 30.2 °F 20.2 °F 28.4 °F 93% 29.62 in 10.0 mi West 12.7 mph - N/A   Overcast
5:55 AM 29.3 °F 19.6 °F 27.5 °F 93% 29.65 in 10.0 mi West 11.5 mph - 0.00 in   Overcast
6:55 AM 25.9 °F 16.0 °F 25.7 °F 99% 29.68 in 10.0 mi WSW 10.4 mph - N/A   Mostly Cloudy
7:18 AM 28.4 °F 18.5 °F 24.8 °F 86% 29.70 in 10.0 mi West 11.5 mph - N/A   Light Freezing Rain
7:26 AM 26.6 °F 16.2 °F 24.8 °F 93% 29.70 in 10.0 mi West 11.5 mph - N/A   Overcast
7:55 AM 27.3 °F 17.7 °F 24.8 °F 90% 29.71 in 10.0 mi WSW 10.4 mph - 0.00 in   Overcast
8:55 AM 28.8 °F 18.4 °F 25.3 °F 87% 29.74 in 10.0 mi WSW 12.7 mph - N/A   Overcast
9:20 AM 30.2 °F 19.8 °F 24.8 °F 80% 29.74 in 10.0 mi West 13.8 mph - N/A   Overcast
9:30 AM 30.2 °F 21.9 °F 24.8 °F 80% 29.75 in 10.0 mi WSW 9.2 mph - N/A   Overcast
9:55 AM 32.0 °F 22.1 °F 27.1 °F 82% 29.75 in 10.0 mi WSW 13.8 mph - 0.00 in   Overcast
10:55 AM 32.7 °F 23.0 °F 31.6 °F 96% 29.76 in 10.0 mi SW 13.8 mph - N/A   Scattered Clouds
11:14 AM 33.8 °F 24.3 °F 33.8 °F 100% 29.75 in 10.0 mi SW 13.8 mph - N/A   Scattered Clouds
11:28 AM 33.8 °F 23.9 °F 33.8 °F 100% 29.75 in 10.0 mi SW 15.0 mph - N/A   Partly Cloudy
11:32 AM 33.8 °F 24.3 °F 33.8 °F 100% 29.75 in 10.0 mi SW 13.8 mph - N/A   Partly Cloudy
11:55 AM 35.1 °F 25.2 °F 34.7 °F 99% 29.75 in 10.0 mi WSW 16.1 mph 20.7 mph 0.00 in   Mostly Cloudy
11:57 AM 35.6 °F 25.2 °F 33.8 °F 93% 29.75 in 10.0 mi WSW 18.4 mph 23.0 mph N/A   Mostly Cloudy
12:00 PM 35.6 °F 25.5 °F 35.6 °F 100% 29.75 in 10.0 mi SW 17.3 mph 23.0 mph N/A   Mostly Cloudy
12:55 PM 37.9 °F 27.9 °F 32.0 °F 79% 29.73 in 10.0 mi SW 19.6 mph 26.5 mph 0.00 in Snow Light Snow
1:55 PM 37.9 °F 27.1 °F 29.7 °F 72% 29.69 in 10.0 mi WSW 23.0 mph 32.2 mph 0.00 in Snow Light Snow
2:13 PM 37.4 °F 26.6 °F 28.4 °F 70% 29.70 in 10.0 mi WSW 21.9 mph 31.1 mph N/A   Mostly Cloudy
2:27 PM 37.4 °F 25.9 °F 28.4 °F 70% 29.70 in 10.0 mi WSW 25.3 mph 28.8 mph N/A Snow Light Snow
2:41 PM 35.6 °F 23.0 °F 35.6 °F 100% 29.71 in 2.5 mi West 27.6 mph 40.3 mph N/A Snow Light Snow
2:43 PM 33.8 °F 20.3 °F 33.8 °F 100% 29.72 in 1.8 mi West 28.8 mph 40.3 mph N/A Snow Light Snow
2:45 PM 33.8 °F 20.5 °F 33.8 °F 100% 29.72 in 1.2 mi West 27.6 mph 40.3 mph N/A Snow Light Snow
2:46 PM 33.8 °F 21.0 °F 33.8 °F 100% 29.72 in 1.2 mi West 25.3 mph 40.3 mph N/A Snow Light Snow
2:49 PM 33.8 °F 21.9 °F 33.8 °F 100% 29.72 in 1.0 mi West 21.9 mph 38.0 mph N/A Snow Light Snow
2:55 PM 32.7 °F 20.4 °F 32.7 °F 100% 29.71 in 0.8 mi West 21.9 mph 32.2 mph 0.01 in Snow Light Snow
2:59 PM 32.0 °F 19.2 °F 32.0 °F 100% 29.71 in 0.8 mi West 23.0 mph 32.2 mph N/A Snow Light Snow
3:00 PM 32.0 °F 19.2 °F 32.0 °F 100% 29.71 in 0.5 mi West 23.0 mph 32.2 mph N/A Fog , Snow Snow
3:02 PM 32.0 °F 19.2 °F 32.0 °F 100% 29.71 in 0.5 mi West 23.0 mph 31.1 mph N/A Fog , Snow Snow
3:09 PM 32.0 °F 19.2 °F 32.0 °F 100% 29.71 in 0.5 mi WSW 23.0 mph 29.9 mph N/A Fog , Snow Snow
3:13 PM 32.0 °F 19.8 °F 32.0 °F 100% 29.72 in 0.5 mi West 20.7 mph 32.2 mph N/A Fog , Snow Snow
3:22 PM 32.0 °F 19.5 °F 32.0 °F 100% 29.72 in 0.2 mi West 21.9 mph 28.8 mph N/A Fog , Snow Snow
3:27 PM 32.0 °F 19.8 °F 32.0 °F 100% 29.72 in 0.2 mi West 20.7 mph 28.8 mph N/A Fog , Snow Light Freezing Fog
3:29 PM 32.0 °F 19.8 °F 32.0 °F 100% 29.72 in 0.2 mi West 20.7 mph - N/A Fog , Snow Heavy Freezing Fog
3:30 PM 32.0 °F 20.1 °F 32.0 °F 100% 29.72 in 0.2 mi West 19.6 mph 25.3 mph N/A Fog , Snow Heavy Freezing Fog
3:41 PM 32.0 °F 20.1 °F 32.0 °F 100% 29.72 in 0.2 mi WSW 19.6 mph 25.3 mph N/A Fog , Snow Heavy Freezing Fog
3:51 PM 32.0 °F 19.8 °F 32.0 °F 100% 29.72 in 0.2 mi West 20.7 mph 26.5 mph N/A Fog , Snow Heavy Freezing Fog
3:55 PM 31.6 °F 20.4 °F 31.6 °F 100% 29.72 in 0.2 mi WSW 17.3 mph 26.5 mph 0.03 in Fog , Snow Heavy Freezing Fog
3:59 PM 32.0 °F 21.2 °F 32.0 °F 100% 29.72 in 0.2 mi WSW 16.1 mph 24.2 mph N/A Fog , Snow Light Freezing Fog
4:16 PM 32.0 °F 20.8 °F 32.0 °F 100% 29.72 in 0.2 mi WSW 17.3 mph - N/A Fog , Snow Light Freezing Fog
4:19 PM 32.0 °F 21.2 °F 32.0 °F 100% 29.72 in 0.5 mi WSW 16.1 mph - N/A Fog , Snow Light Freezing Fog
4:20 PM 32.0 °F 21.6 °F 32.0 °F 100% 29.72 in 0.5 mi WSW 15.0 mph - N/A Fog , Snow Light Freezing Fog
4:27 PM 32.0 °F 22.1 °F 32.0 °F 100% 29.72 in 0.8 mi WSW 13.8 mph - N/A Snow Light Snow
4:28 PM 32.0 °F 21.6 °F 32.0 °F 100% 29.72 in 0.8 mi WSW 15.0 mph - N/A Snow Light Snow
4:31 PM 32.0 °F 22.5 °F 32.0 °F 100% 29.72 in 1.0 mi WSW 12.7 mph - N/A Snow Light Snow
4:33 PM 32.0 °F 22.1 °F 32.0 °F 100% 29.72 in 1.2 mi WSW 13.8 mph - N/A Snow Light Snow
4:55 PM 31.8 °F 21.4 °F 31.8 °F 100% 29.71 in 1.2 mi SW 15.0 mph - 0.02 in Snow Light Snow
4:59 PM 32.0 °F 22.5 °F 32.0 °F 100% 29.71 in 1.5 mi SW 12.7 mph - N/A Snow Light Snow
5:07 PM 32.0 °F 22.1 °F 32.0 °F 100% 29.70 in 1.5 mi WSW 13.8 mph - N/A Snow Light Snow
5:14 PM 32.0 °F 21.6 °F 32.0 °F 100% 29.70 in 1.5 mi WSW 15.0 mph - N/A Snow Light Snow
5:20 PM 32.0 °F 21.6 °F 32.0 °F 100% 29.69 in 2.0 mi WSW 15.0 mph - N/A Snow Light Snow
5:22 PM 32.0 °F 20.5 °F 32.0 °F 100% 29.69 in 2.0 mi SW 18.4 mph - N/A Snow Light Snow
5:27 PM 32.0 °F 21.2 °F 32.0 °F 100% 29.68 in 3.0 mi WSW 16.1 mph - N/A Snow Light Snow
5:37 PM 32.0 °F 20.8 °F 32.0 °F 100% 29.68 in 3.0 mi SW 17.3 mph 23.0 mph N/A Snow Light Snow
5:40 PM 32.0 °F 19.2 °F 32.0 °F 100% 29.68 in 4.0 mi SW 23.0 mph 27.6 mph N/A Snow Light Snow
5:55 PM 32.2 °F 21.1 °F 32.2 °F 100% 29.67 in 10.0 mi SW 17.3 mph 26.5 mph 0.00 in Snow Light Snow
6:20 PM 32.0 °F 21.2 °F 32.0 °F 100% 29.65 in 10.0 mi SW 16.1 mph 25.3 mph N/A   Overcast
6:26 PM 32.0 °F 21.2 °F 32.0 °F 100% 29.64 in 10.0 mi SW 16.1 mph - N/A Snow Light Snow
6:41 PM 32.0 °F 19.8 °F 32.0 °F 100% 29.64 in 10.0 mi SW 20.7 mph 27.6 mph N/A Snow Light Snow
6:47 PM 32.0 °F 19.2 °F 32.0 °F 100% 29.64 in 10.0 mi SW 23.0 mph 28.8 mph N/A Snow Light Snow
6:53 PM 32.0 °F 20.5 °F 32.0 °F 100% 29.63 in 10.0 mi SW 18.4 mph 28.8 mph N/A Snow Light Snow
6:55 PM 32.9 °F 21.0 °F 32.9 °F 100% 29.64 in 10.0 mi SW 20.7 mph 28.8 mph 0.00 in Snow Light Snow
6:57 PM 33.8 °F 22.5 °F 33.8 °F 100% 29.63 in 10.0 mi SW 19.6 mph 27.6 mph N/A Snow Light Snow
7:01 PM 33.8 °F 22.8 °F 33.8 °F 100% 29.62 in 10.0 mi SW 18.4 mph 26.5 mph N/A Snow Light Snow
7:55 PM 34.0 °F 24.6 °F 34.0 °F 100% 29.64 in 10.0 mi SW 13.8 mph 26.5 mph 0.00 in Snow Light Snow
8:08 PM 33.8 °F 23.2 °F 33.8 °F 100% 29.63 in 10.0 mi SW 17.3 mph 24.2 mph N/A Snow Light Snow
8:22 PM 33.8 °F 23.5 °F 33.8 °F 100% 29.62 in 10.0 mi SW 16.1 mph - N/A Snow Light Snow
8:35 PM 33.8 °F 23.9 °F 33.8 °F 100% 29.63 in 10.0 mi SW 15.0 mph 25.3 mph N/A Snow Light Snow
8:44 PM 33.8 °F 23.5 °F 33.8 °F 100% 29.62 in 10.0 mi SW 16.1 mph 24.2 mph N/A Snow Light Snow
8:50 PM 33.8 °F 23.2 °F 33.8 °F 100% 29.62 in 10.0 mi SW 17.3 mph 23.0 mph N/A   Overcast
8:51 PM 33.8 °F 23.2 °F 33.8 °F 100% 29.62 in 10.0 mi SW 17.3 mph 23.0 mph N/A Snow Light Snow
8:55 PM 34.0 °F 23.8 °F 34.0 °F 100% 29.62 in 10.0 mi SW 16.1 mph 23.0 mph 0.00 in Snow Light Snow
9:01 PM 33.8 °F 22.8 °F 33.8 °F 100% 29.62 in 10.0 mi SW 18.4 mph 24.2 mph N/A   Overcast
9:13 PM 33.8 °F 23.5 °F 33.8 °F 100% 29.62 in 10.0 mi SW 16.1 mph 25.3 mph N/A Snow Light Snow
9:38 PM 33.8 °F 23.9 °F 33.8 °F 100% 29.61 in 10.0 mi SW 15.0 mph 26.5 mph N/A Snow Light Snow
9:55 PM 34.5 °F 24.5 °F 34.5 °F 100% 29.59 in 10.0 mi SW 16.1 mph 27.6 mph 0.00 in Snow Light Snow
10:55 PM 34.2 °F 24.4 °F 34.2 °F 100% 29.56 in 10.0 mi SW 15.0 mph 26.5 mph 0.00 in Snow Light Snow
11:55 PM 34.7 °F 23.7 °F 34.7 °F 100% 29.53 in 10.0 mi SW 19.6 mph 26.5 mph 0.00 in Snow Light Snow